User: anonymous   Login
Location: Unspecified
(0.0000°N, 0.0000°E)
Time: 01:21:17
(UTC+00:00)
Language:

Fuji - Orbit

View from above orbital plane
View from above orbital plane
View from above satellite
View from above satellite

Ground track
Ground track

The orbit data is extracted from the following two-line orbital elements,

1 16909U 86061B   21337.96153865 -.00000067  00000-0  21394-3 0  9991
2 16909  50.0132 205.2241 0010973 268.2441 106.6013 12.44472091605867
Epoch (UTC): 03 December 2021 23:04:36
Eccentricity: 0.0010973
inclination: 50.0132°
perigee height: 1479 km
apogee height: 1496 km
right ascension of ascending node: 205.2241°
argument of perigee: 268.2441°
revolutions per day: 12.44472091
mean anomaly at epoch: 106.6013°
orbit number at epoch: 60586

The dashed part of the orbit path shows where the satellite is in the earth's shadow,  

DLR